EZY641 EGKK-EGGP

Flight info

Callsign EZY641
Flight time 0h 44m
Altitude 24000
Route LAM N57 WELIN T420 ELVOS
Aircraft A320/M-SDE3FGHIRWY/LB1

Departure

Time 2026-05-08 04:13
Airport London Gatwick Airport (EGKK)

Arrival

Time 2026-05-08 04:57
Airport Liverpool John Lennon Airport (EGGP)
Time Latitude Longitude Altitude Speed Heading
2026-05-08 03:43 51.15821 -0.17689 209 ft 0 kts 347°
2026-05-08 04:02 51.15798 -0.17681 209 ft 4 kts 347°
2026-05-08 04:02 51.15776 -0.17674 216 ft 4 kts 350°
2026-05-08 04:03 51.15751 -0.17674 211 ft 4 kts 27°
2026-05-08 04:03 51.15731 -0.17729 204 ft 3 kts 77°
2026-05-08 04:03 51.15723 -0.17783 204 ft 4 kts 77°
2026-05-08 04:04 51.15719 -0.17811 213 ft 4 kts 77°
2026-05-08 04:04 51.15716 -0.17836 204 ft 0 kts 77°
2026-05-08 04:06 51.15716 -0.17834 211 ft 2 kts 77°
2026-05-08 04:07 51.15726 -0.17760 204 ft 11 kts 79°
2026-05-08 04:07 51.15740 -0.17651 206 ft 9 kts 77°
2026-05-08 04:07 51.15753 -0.17557 207 ft 8 kts 85°
2026-05-08 04:07 51.15725 -0.17502 209 ft 6 kts 158°
2026-05-08 04:08 51.15686 -0.17486 211 ft 7 kts 167°
2026-05-08 04:08 51.15606 -0.17459 207 ft 14 kts 168°
2026-05-08 04:08 51.15508 -0.17425 209 ft 14 kts 167°
2026-05-08 04:08 51.15411 -0.17391 210 ft 15 kts 167°
2026-05-08 04:09 51.15308 -0.17355 208 ft 16 kts 168°
2026-05-08 04:09 51.15244 -0.17312 204 ft 1 kts 147°
2026-05-08 04:09 51.15231 -0.17299 204 ft 6 kts 147°
2026-05-08 04:09 51.15182 -0.17225 213 ft 12 kts 110°
2026-05-08 04:10 51.15195 -0.17094 204 ft 12 kts 78°
2026-05-08 04:10 51.15212 -0.16966 213 ft 8 kts 78°
2026-05-08 04:10 51.15218 -0.16926 204 ft 0 kts 77°
2026-05-08 04:11 51.15223 -0.16891 211 ft 10 kts 77°
2026-05-08 04:11 51.15190 -0.16799 211 ft 10 kts 165°
2026-05-08 04:11 51.15125 -0.16815 207 ft 10 kts 231°
2026-05-08 04:11 51.15111 -0.16878 206 ft 0 kts 259°
2026-05-08 04:12 51.15111 -0.16882 202 ft 3 kts 259°
2026-05-08 04:12 51.15054 -0.17286 207 ft 77 kts 257°
2026-05-08 04:12 51.14892 -0.18466 209 ft 139 kts 257°
2026-05-08 04:12 51.14658 -0.20169 483 ft 164 kts 258°
2026-05-08 04:13 51.14441 -0.21954 1256 ft 165 kts 260°
2026-05-08 04:13 51.14237 -0.23747 1956 ft 163 kts 258°
2026-05-08 04:13 51.13995 -0.25510 2634 ft 163 kts 256°
2026-05-08 04:13 51.13757 -0.27354 3062 ft 182 kts 263°
2026-05-08 04:14 51.13936 -0.29425 3379 ft 206 kts 292°
2026-05-08 04:14 51.14858 -0.31330 3696 ft 233 kts 325°
2026-05-08 04:14 51.16402 -0.32186 4401 ft 241 kts 359°
2026-05-08 04:14 51.18017 -0.31577 5248 ft 242 kts 33°
2026-05-08 04:15 51.19147 -0.29658 6083 ft 241 kts 67°
2026-05-08 04:15 51.19570 -0.27089 6954 ft 241 kts 81°
2026-05-08 04:15 51.19878 -0.24439 7802 ft 245 kts 81°
2026-05-08 04:15 51.20187 -0.21749 8636 ft 249 kts 81°
2026-05-08 04:16 51.20512 -0.18980 9241 ft 264 kts 81°
2026-05-08 04:16 51.20890 -0.15943 9713 ft 285 kts 80°
2026-05-08 04:16 51.21296 -0.12795 10329 ft 299 kts 79°
2026-05-08 04:16 51.21741 -0.09424 10649 ft 323 kts 79°
2026-05-08 04:17 51.22224 -0.05798 10922 ft 346 kts 79°
2026-05-08 04:17 51.22688 -0.02308 11339 ft 359 kts 79°
2026-05-08 04:17 51.23207 0.01633 12029 ft 366 kts 79°
2026-05-08 04:17 51.23727 0.05622 12773 ft 370 kts 79°
2026-05-08 04:18 51.24249 0.09664 13490 ft 374 kts 79°
2026-05-08 04:18 51.24773 0.13760 14197 ft 379 kts 79°
2026-05-08 04:18 51.25302 0.17899 14873 ft 383 kts 79°
2026-05-08 04:18 51.25752 0.21435 15426 ft 386 kts 79°
2026-05-08 04:19 51.26283 0.25796 16082 ft 390 kts 80°
2026-05-08 04:19 51.26785 0.30074 16713 ft 394 kts 81°
2026-05-08 04:19 51.27472 0.34324 17304 ft 399 kts 66°
2026-05-08 04:19 51.29067 0.37940 17859 ft 403 kts 42°
2026-05-08 04:20 51.31450 0.40282 18383 ft 406 kts 18°
2026-05-08 04:20 51.34223 0.40933 18910 ft 405 kts 354°
2026-05-08 04:20 51.36927 0.39786 19424 ft 404 kts 330°
2026-05-08 04:20 51.39157 0.37105 19929 ft 402 kts 313°
2026-05-08 04:21 51.41117 0.33896 20453 ft 405 kts 311°
2026-05-08 04:21 51.43106 0.30677 20952 ft 409 kts 317°
2026-05-08 04:21 51.45502 0.28159 21414 ft 417 kts 332°
2026-05-08 04:21 51.48177 0.26310 21895 ft 420 kts 335°
2026-05-08 04:22 51.50883 0.24484 22371 ft 424 kts 335°
2026-05-08 04:22 51.53609 0.22647 22836 ft 426 kts 335°
2026-05-08 04:22 51.56355 0.20796 23285 ft 429 kts 335°
2026-05-08 04:22 51.59113 0.18927 23711 ft 432 kts 335°
2026-05-08 04:23 51.61864 0.17010 24014 ft 434 kts 332°
2026-05-08 04:23 51.64206 0.14862 24086 ft 438 kts 323°
2026-05-08 04:23 51.66652 0.11780 24092 ft 444 kts 315°
2026-05-08 04:23 51.68827 0.08261 24097 ft 445 kts 311°
2026-05-08 04:24 51.70989 0.04681 24092 ft 445 kts 312°
2026-05-08 04:24 51.73126 0.01160 24087 ft 445 kts 312°
2026-05-08 04:24 51.75329 -0.02459 24094 ft 445 kts 312°
2026-05-08 04:24 51.77495 -0.06016 24091 ft 445 kts 312°
2026-05-08 04:25 51.79667 -0.09591 24091 ft 445 kts 312°
2026-05-08 04:25 51.81830 -0.13162 24091 ft 445 kts 312°
2026-05-08 04:25 51.83994 -0.16745 24090 ft 445 kts 312°
2026-05-08 04:25 51.86152 -0.20328 24082 ft 445 kts 312°
2026-05-08 04:26 51.88310 -0.23918 24086 ft 445 kts 312°
2026-05-08 04:26 51.90469 -0.27506 24089 ft 445 kts 312°
2026-05-08 04:26 51.92625 -0.31093 24079 ft 445 kts 312°
2026-05-08 04:26 51.94784 -0.34688 24086 ft 445 kts 312°
2026-05-08 04:27 51.96940 -0.38285 24080 ft 445 kts 311°
2026-05-08 04:27 51.99091 -0.41886 24077 ft 445 kts 311°
2026-05-08 04:27 52.01245 -0.45502 24075 ft 445 kts 311°
2026-05-08 04:27 52.03394 -0.49114 24078 ft 445 kts 311°
2026-05-08 04:28 52.05542 -0.52727 24086 ft 445 kts 311°
2026-05-08 04:28 52.07688 -0.56338 24083 ft 444 kts 311°
2026-05-08 04:28 52.09838 -0.59957 24082 ft 444 kts 311°
2026-05-08 04:28 52.11980 -0.63572 24078 ft 444 kts 311°
2026-05-08 04:29 52.14124 -0.67198 24073 ft 444 kts 311°
2026-05-08 04:29 52.16263 -0.70823 24082 ft 444 kts 311°
2026-05-08 04:29 52.18399 -0.74450 24079 ft 444 kts 311°
2026-05-08 04:29 52.20537 -0.78086 24079 ft 444 kts 311°
2026-05-08 04:30 52.22673 -0.81725 24083 ft 444 kts 311°
2026-05-08 04:30 52.24939 -0.85150 24075 ft 447 kts 319°
2026-05-08 04:30 52.27519 -0.88004 24078 ft 449 kts 327°
2026-05-08 04:30 52.30195 -0.90630 24071 ft 449 kts 326°
2026-05-08 04:31 52.32870 -0.93276 24078 ft 450 kts 326°
2026-05-08 04:31 52.35541 -0.95938 24088 ft 450 kts 326°
2026-05-08 04:31 52.38209 -0.98610 24089 ft 449 kts 326°
2026-05-08 04:31 52.40911 -1.01319 24084 ft 449 kts 326°
2026-05-08 04:32 52.43540 -1.03963 24085 ft 449 kts 326°
2026-05-08 04:32 52.46236 -1.06679 24088 ft 449 kts 326°
2026-05-08 04:32 52.48897 -1.09357 24078 ft 449 kts 326°
2026-05-08 04:32 52.51560 -1.12037 24063 ft 450 kts 326°
2026-05-08 04:33 52.54234 -1.14733 23822 ft 451 kts 326°
2026-05-08 04:33 52.56905 -1.17424 23567 ft 449 kts 326°
2026-05-08 04:33 52.59554 -1.20091 22942 ft 445 kts 326°
2026-05-08 04:33 52.61026 -1.21572 22508 ft 443 kts 326°
2026-05-08 04:34 52.62002 -1.22555 22237 ft 442 kts 326°
2026-05-08 04:34 52.64612 -1.25192 21521 ft 438 kts 326°
2026-05-08 04:34 52.67011 -1.27621 20871 ft 434 kts 326°
2026-05-08 04:35 52.69156 -1.29793 20301 ft 431 kts 326°
2026-05-08 04:35 52.71695 -1.32366 19779 ft 425 kts 326°
2026-05-08 04:35 52.73358 -1.34057 19627 ft 424 kts 326°
2026-05-08 04:35 52.76709 -1.37475 19171 ft 422 kts 326°
2026-05-08 04:36 52.79199 -1.40022 18838 ft 420 kts 326°
2026-05-08 04:36 52.81674 -1.42555 18501 ft 418 kts 326°
2026-05-08 04:36 52.83309 -1.44229 18267 ft 416 kts 326°
2026-05-08 04:36 52.85766 -1.46742 17950 ft 414 kts 326°
2026-05-08 04:37 52.88244 -1.49281 17611 ft 412 kts 326°
2026-05-08 04:37 52.90672 -1.51771 17276 ft 408 kts 326°
2026-05-08 04:37 52.93043 -1.54204 17116 ft 393 kts 326°
2026-05-08 04:37 52.95318 -1.56544 16988 ft 378 kts 326°
2026-05-08 04:38 52.97510 -1.58807 16862 ft 364 kts 326°
2026-05-08 04:38 52.99623 -1.60985 16744 ft 351 kts 326°
2026-05-08 04:38 53.01579 -1.63273 16610 ft 337 kts 316°
2026-05-08 04:38 53.03203 -1.65962 16483 ft 324 kts 307°
2026-05-08 04:39 53.04500 -1.68930 16306 ft 313 kts 298°
2026-05-08 04:39 53.05488 -1.72118 16007 ft 308 kts 290°
2026-05-08 04:39 53.06160 -1.75472 15687 ft 304 kts 281°
2026-05-08 04:39 53.06540 -1.78907 15346 ft 301 kts 276°
2026-05-08 04:40 53.06867 -1.82349 15017 ft 300 kts 277°
2026-05-08 04:40 53.07195 -1.85763 14687 ft 299 kts 277°
2026-05-08 04:40 53.07524 -1.89166 14367 ft 297 kts 277°
2026-05-08 04:40 53.07848 -1.92547 14040 ft 295 kts 277°
2026-05-08 04:41 53.08167 -1.95916 13707 ft 294 kts 277°
2026-05-08 04:41 53.08482 -1.99257 13388 ft 293 kts 277°
2026-05-08 04:41 53.08798 -2.02606 13059 ft 291 kts 276°
2026-05-08 04:41 53.09110 -2.05928 12707 ft 291 kts 276°
2026-05-08 04:42 53.09430 -2.09410 12395 ft 326 kts 276°
2026-05-08 04:42 53.09789 -2.13343 12125 ft 357 kts 277°
2026-05-08 04:42 53.10172 -2.17487 12039 ft 365 kts 277°
2026-05-08 04:42 53.10561 -2.21676 11900 ft 368 kts 277°
2026-05-08 04:43 53.10954 -2.25920 10984 ft 373 kts 277°
2026-05-08 04:43 53.11338 -2.30115 10693 ft 359 kts 277°
2026-05-08 04:43 53.11708 -2.34144 10442 ft 346 kts 277°
2026-05-08 04:43 53.12065 -2.38024 10191 ft 333 kts 277°
2026-05-08 04:44 53.12410 -2.41778 9964 ft 320 kts 276°
2026-05-08 04:44 53.12728 -2.45288 9901 ft 297 kts 276°
2026-05-08 04:44 53.13023 -2.48627 9770 ft 286 kts 276°
2026-05-08 04:44 53.13311 -2.51842 9646 ft 276 kts 276°
2026-05-08 04:45 53.13599 -2.54979 9516 ft 266 kts 276°
2026-05-08 04:45 53.13880 -2.57965 9392 ft 256 kts 276°
2026-05-08 04:45 53.14155 -2.60844 9266 ft 247 kts 276°
2026-05-08 04:45 53.14422 -2.63610 9128 ft 238 kts 276°
2026-05-08 04:46 53.14678 -2.66321 8856 ft 236 kts 276°
2026-05-08 04:46 53.14932 -2.69023 8541 ft 236 kts 276°
2026-05-08 04:46 53.15188 -2.71719 8220 ft 235 kts 276°
2026-05-08 04:46 53.15444 -2.74407 7895 ft 235 kts 276°
2026-05-08 04:47 53.15701 -2.77089 7570 ft 234 kts 276°
2026-05-08 04:47 53.15956 -2.79759 7248 ft 233 kts 276°
2026-05-08 04:47 53.16207 -2.82419 6934 ft 232 kts 276°
2026-05-08 04:47 53.16457 -2.85074 6602 ft 232 kts 276°
2026-05-08 04:48 53.16706 -2.87720 6280 ft 231 kts 276°
2026-05-08 04:48 53.16955 -2.90360 5963 ft 231 kts 276°
2026-05-08 04:48 53.17200 -2.92937 5649 ft 230 kts 276°
2026-05-08 04:48 53.17448 -2.95565 5309 ft 229 kts 275°
2026-05-08 04:49 53.17684 -2.98199 4940 ft 230 kts 275°
2026-05-08 04:49 53.17909 -3.00813 4743 ft 223 kts 275°
2026-05-08 04:49 53.18128 -3.03317 4500 ft 216 kts 275°
2026-05-08 04:49 53.18346 -3.05799 4197 ft 217 kts 275°
2026-05-08 04:50 53.18562 -3.08271 4038 ft 214 kts 275°
2026-05-08 04:50 53.18776 -3.10728 3999 ft 214 kts 275°
2026-05-08 04:50 53.18989 -3.13201 4009 ft 215 kts 275°
2026-05-08 04:50 53.19203 -3.15670 4004 ft 216 kts 278°
2026-05-08 04:51 53.19830 -3.17935 4007 ft 221 kts 311°
2026-05-08 04:51 53.21119 -3.19316 3999 ft 226 kts 340°
2026-05-08 04:51 53.22684 -3.19479 3789 ft 225 kts 14°
2026-05-08 04:51 53.24146 -3.18539 3724 ft 228 kts 24°
2026-05-08 04:52 53.25574 -3.17511 3668 ft 218 kts 23°
2026-05-08 04:52 53.26934 -3.16538 3620 ft 209 kts 23°
2026-05-08 04:52 53.28259 -3.15595 3535 ft 205 kts 23°
2026-05-08 04:52 53.29572 -3.14662 3329 ft 205 kts 23°
2026-05-08 04:53 53.30832 -3.13500 3136 ft 204 kts 41°
2026-05-08 04:53 53.31741 -3.11718 2948 ft 201 kts 63°
2026-05-08 04:53 53.32196 -3.09534 2740 ft 199 kts 86°
2026-05-08 04:53 53.32313 -3.07224 2484 ft 200 kts 88°
2026-05-08 04:54 53.32424 -3.04897 2226 ft 202 kts 88°
2026-05-08 04:54 53.32536 -3.02545 1955 ft 204 kts 87°
2026-05-08 04:54 53.32649 -3.00184 1704 ft 202 kts 87°
2026-05-08 04:54 53.32757 -2.97931 1426 ft 186 kts 87°
2026-05-08 04:55 53.32856 -2.95863 1184 ft 170 kts 86°
2026-05-08 04:55 53.32943 -2.94010 981 ft 151 kts 87°
2026-05-08 04:55 53.33022 -2.92334 773 ft 139 kts 87°
2026-05-08 04:55 53.33084 -2.90749 587 ft 134 kts 88°
2026-05-08 04:56 53.33168 -2.89198 410 ft 133 kts 85°
2026-05-08 04:56 53.33243 -2.87660 240 ft 132 kts 87°
2026-05-08 04:56 53.33310 -2.86130 94 ft 130 kts 86°
2026-05-08 04:56 53.33368 -2.84882 74 ft 70 kts 85°
2026-05-08 04:57 53.33470 -2.84381 82 ft 28 kts 57°
2026-05-08 04:57 53.33505 -2.84285 79 ft 6 kts 59°
2026-05-08 04:57 53.33523 -2.84250 82 ft 3 kts 27°
2026-05-08 04:57 53.33542 -2.84251 74 ft 3 kts 351°
2026-05-08 04:58 53.33556 -2.84275 78 ft 3 kts 286°
2026-05-08 04:58 53.33560 -2.84322 77 ft 4 kts 268°
2026-05-08 04:58 53.33556 -2.84400 75 ft 12 kts 265°
2026-05-08 04:58 53.33550 -2.84530 81 ft 10 kts 266°
2026-05-08 04:59 53.33545 -2.84628 80 ft 7 kts 265°
2026-05-08 04:59 53.33542 -2.84704 81 ft 5 kts 265°
2026-05-08 04:59 53.33540 -2.84735 82 ft 1 kts 266°
2026-05-08 04:59 53.33538 -2.84784 83 ft 8 kts 266°
2026-05-08 05:00 53.33533 -2.84931 85 ft 18 kts 267°
2026-05-08 05:00 53.33521 -2.85151 88 ft 18 kts 262°
2026-05-08 05:00 53.33513 -2.85326 84 ft 13 kts 266°
2026-05-08 05:00 53.33507 -2.85454 86 ft 7 kts 266°
2026-05-08 05:01 53.33523 -2.85497 85 ft 3 kts 323°
2026-05-08 05:01 53.33536 -2.85505 87 ft 1 kts 342°
2026-05-08 05:01 53.33547 -2.85507 85 ft 5 kts 354°
2026-05-08 05:01 53.33583 -2.85511 90 ft 5 kts 358°
2026-05-08 05:02 53.33614 -2.85511 88 ft 4 kts
2026-05-08 05:02 53.33644 -2.85511 86 ft 4 kts 358°
2026-05-08 05:02 53.33661 -2.85513 86 ft 2 kts 356°
2026-05-08 05:02 53.33665 -2.85513 88 ft 0 kts 356°